Weather History for Jackson, KY

Change the Weather History Date:

Saturday, December 8, 2012

  Actual Average Record
Temperature  
Mean Temperature 58 °F 40 °F  
Max Temperature 63 °F 48 °F 67 °F (1987)
Min Temperature 53 °F 32 °F 10 °F (2006)
Degree Days  
Heating Degree Days 7 25  
Month to date heating degree days 80 191  
Since 1 July heating degree days 1032 991  
Cooling Degree Days 0 0  
Month to date cooling degree days 0 0  
Year to date cooling degree days 1318 1154  
Growing Degree Days 8 (Base 50)    
Moisture  
Dew Point 53 °F    
Average Humidity 86    
Maximum Humidity 100    
Minimum Humidity 72    
Precipitation  
Precipitation 0.90 in 0.14 in 1.53 in (2009)
Month to date precipitation 1.34 1.12  
Year to date precipitation 46.94 45.28  
Snow  
Snow 0.00 in 0.10 in - ()
Month to date snowfall 0.0 0.8  
Since 1 July snowfall 1.1 1.4  
Snow Depth 0.00 in    
Sea Level Pressure  
Sea Level Pressure 29.95 in    
Wind  
Wind Speed 3 mph (WSW)    
Max Wind Speed 12 mph    
Max Gust Speed 16 mph    
Visibility 4 miles    
Events Fog , Rain , Thunderstorm    
T = Trace of Precipitation, MM = Missing Value Source: NWS Daily Summary

Daily Weather History Graph

Daily Weather History Graph

Search for Another Location

Airport:

Trip Planner

Search our weather history database for the weather conditions in past years. The results will help you decide how hot, cold, wet, or windy it might be!

Date:

Astronomy

Dec. 08, 2012 Rise Set
Actual Time 7:36 AM EST 5:14 PM EST
Civil Twilight 7:06 AM EST 5:43 PM EST
Nautical Twilight 6:34 AM EST 6:16 PM EST
Astronomical Twilight 6:02 AM EST 6:48 PM EST
Moon 2:04 AM EST (12/8) 1:39 PM EST (12/8)
Length of Visible Light 10h 36m
Length of Day
9h 38m
Waning Crescent, 28% of the Moon is Illuminated
Dec 8
Waning Crescent
Dec 13
New
Dec 20
First Quarter
Dec 28
Full
Jan 4
Last Quarter

Hourly Weather History & Observations

Time (EST) Temp. Dew Point Humidity Pressure Visibility Wind Dir Wind Speed Gust Speed Precip Events Conditions
12:40 AM 55.4 °F 51.8 °F 88% 29.92 in 10.0 mi SW 3.5 mph - 0.01 in   Overcast
12:53 AM 55.9 °F 51.1 °F 84% 29.90 in 10.0 mi Variable 4.6 mph - 0.01 in   Overcast
1:03 AM 57.2 °F 51.8 °F 82% 29.92 in 10.0 mi Variable 4.6 mph - N/A   Overcast
1:53 AM 55.9 °F 51.1 °F 84% 29.90 in 10.0 mi SW 6.9 mph - 0.00 in   Overcast
2:42 AM 57.2 °F 50.0 °F 77% 29.92 in 10.0 mi SSW 4.6 mph - N/A   Overcast
2:53 AM 55.9 °F 50.0 °F 80% 29.90 in 10.0 mi Variable 5.8 mph - N/A   Mostly Cloudy
3:04 AM 57.2 °F 50.0 °F 77% 29.92 in 10.0 mi Variable 3.5 mph - N/A   Overcast
3:53 AM 55.9 °F 51.1 °F 84% 29.90 in 10.0 mi Calm Calm - N/A   Overcast
4:53 AM 55.9 °F 50.0 °F 80% 29.90 in 10.0 mi SW 3.5 mph - N/A   Clear
5:42 AM 55.4 °F 51.8 °F 88% 29.91 in 10.0 mi Variable 3.5 mph - N/A   Overcast
5:53 AM 55.9 °F 51.1 °F 84% 29.90 in 10.0 mi Variable 3.5 mph - N/A   Overcast
6:08 AM 55.4 °F 51.8 °F 88% 29.92 in 10.0 mi Calm Calm - N/A   Overcast
6:22 AM 55.4 °F 51.8 °F 88% 29.92 in 10.0 mi SSW 3.5 mph - N/A   Overcast
6:49 AM 55.4 °F 50.0 °F 82% 29.93 in 10.0 mi SW 3.5 mph - N/A   Overcast
6:53 AM 55.0 °F 50.0 °F 83% 29.91 in 10.0 mi SSW 4.6 mph - N/A   Overcast
7:53 AM 55.9 °F 50.0 °F 80% 29.92 in 10.0 mi Variable 3.5 mph - N/A   Overcast
8:11 AM 57.2 °F 50.0 °F 77% 29.94 in 10.0 mi Variable 4.6 mph - N/A   Overcast
8:53 AM 57.0 °F 51.1 °F 81% 29.93 in 10.0 mi Variable 3.5 mph - N/A   Overcast
9:53 AM 59.0 °F 52.0 °F 78% 29.93 in 10.0 mi South 5.8 mph - N/A   Overcast
10:53 AM 60.1 °F 52.0 °F 75% 29.92 in 10.0 mi Variable 3.5 mph - N/A   Overcast
11:53 AM 61.0 °F 51.1 °F 70% 29.91 in 10.0 mi Calm Calm - 0.00 in Rain Light Rain
12:53 PM 62.1 °F 52.0 °F 70% 29.90 in 10.0 mi Calm Calm - 0.00 in   Overcast
1:30 PM 60.8 °F 51.8 °F 72% 29.91 in 10.0 mi Variable 3.5 mph - 0.00 in Rain Light Rain
1:47 PM 57.2 °F 53.6 °F 88% 29.92 in 1.8 mi West 10.4 mph 16.1 mph 0.02 in Rain Heavy Rain
1:53 PM 57.0 °F 54.0 °F 89% 29.91 in 1.0 mi West 8.1 mph - 0.06 in Rain Heavy Rain
2:07 PM 57.2 °F 55.4 °F 94% 29.93 in 2.0 mi West 9.2 mph - 0.05 in Rain Light Rain
2:16 PM 57.2 °F 55.4 °F 94% 29.92 in 4.0 mi Variable 3.5 mph - 0.05 in Rain Light Rain
2:46 PM 57.2 °F 55.4 °F 94% 29.93 in 5.0 mi Variable 5.8 mph - 0.06 in Rain Light Rain
2:53 PM 57.0 °F 55.0 °F 93% 29.92 in 7.0 mi Calm Calm - 0.06 in   Overcast
3:14 PM 55.4 °F 55.4 °F 100% 29.94 in 2.0 mi Calm Calm - 0.00 in Rain Light Rain
3:22 PM 55.4 °F 55.4 °F 100% 29.94 in 1.2 mi WSW 4.6 mph - 0.04 in Rain Rain
3:25 PM 55.4 °F 55.4 °F 100% 29.94 in 1.8 mi WSW 4.6 mph - 0.04 in Rain Light Rain
3:27 PM 55.4 °F 55.4 °F 100% 29.94 in 2.5 mi WSW 3.5 mph - 0.04 in Rain Light Rain
3:34 PM 55.4 °F 55.4 °F 100% 29.94 in 3.0 mi West 3.5 mph - 0.04 in Rain Light Rain
3:41 PM 55.4 °F 53.6 °F 94% 29.94 in 1.8 mi WSW 4.6 mph - 0.05 in Rain Light Rain
3:48 PM 55.4 °F 55.4 °F 100% 29.95 in 1.2 mi West 5.8 mph - 0.07 in Rain Rain
3:53 PM 55.9 °F 54.0 °F 93% 29.93 in 1.5 mi Variable 4.6 mph - 0.08 in Rain Light Rain
3:57 PM 55.4 °F 53.6 °F 94% 29.94 in 2.0 mi West 5.8 mph - 0.00 in Rain Light Rain
4:11 PM 55.4 °F 53.6 °F 94% 29.95 in 4.0 mi Variable 3.5 mph - 0.01 in Rain Light Rain
4:27 PM 55.4 °F 53.6 °F 94% 29.95 in 1.5 mi Calm Calm - 0.03 in Rain Heavy Rain
4:35 PM 55.4 °F 53.6 °F 94% 29.95 in 1.2 mi Variable 4.6 mph - 0.07 in Rain Light Rain
4:41 PM 55.4 °F 53.6 °F 94% 29.95 in 3.0 mi Variable 4.6 mph - 0.07 in Rain Light Rain
4:50 PM 55.4 °F 53.6 °F 94% 29.95 in 3.0 mi Calm Calm - 0.08 in Rain Light Rain
4:53 PM 55.0 °F 54.0 °F 96% 29.94 in 3.0 mi Calm Calm - 0.08 in Rain Light Rain
5:01 PM 55.4 °F 53.6 °F 94% 29.95 in 1.5 mi Calm Calm - 0.00 in Rain Light Rain
5:07 PM 55.4 °F 53.6 °F 94% 29.96 in 0.5 mi Calm Calm - 0.00 in Fog , Rain Light Rain
5:19 PM 55.4 °F 53.6 °F 94% 29.96 in 0.5 mi Calm Calm - 0.00 in Fog , Rain Light Rain
5:30 PM 55.4 °F 53.6 °F 94% 29.96 in 2.0 mi SW 3.5 mph - 0.01 in   Overcast
5:37 PM 55.4 °F 53.6 °F 94% 29.96 in 3.0 mi Calm Calm - 0.02 in Rain Light Rain
5:42 PM 55.4 °F 53.6 °F 94% 29.96 in 1.5 mi Calm Calm - 0.02 in Rain Light Rain
5:51 PM 53.6 °F 53.6 °F 100% 29.97 in 0.5 mi Calm Calm - 0.07 in Fog , Rain Rain
5:53 PM 54.0 °F 54.0 °F 100% 29.96 in 0.5 mi Calm Calm - 0.07 in Fog , Rain Rain
6:07 PM 53.6 °F 53.6 °F 100% 29.97 in 1.0 mi Calm Calm - 0.02 in Rain Light Rain
6:16 PM 53.6 °F 53.6 °F 100% 29.98 in 0.5 mi WSW 4.6 mph - 0.06 in Fog , Rain Heavy Rain
6:29 PM 53.6 °F 53.6 °F 100% 29.97 in 1.8 mi Calm Calm - 0.10 in Rain Light Rain
6:33 PM 53.6 °F 53.6 °F 100% 29.98 in 3.0 mi Variable 3.5 mph - 0.10 in Rain Light Rain
6:53 PM 54.0 °F 53.1 °F 97% 29.97 in 2.5 mi Calm Calm - 0.11 in Rain Light Rain
7:11 PM 53.6 °F 53.6 °F 100% 29.98 in 4.0 mi Calm Calm - 0.01 in Rain Light Rain
7:24 PM 53.6 °F 51.8 °F 94% 29.99 in 1.8 mi Calm Calm - 0.01 in   Overcast
7:27 PM 53.6 °F 51.8 °F 94% 29.99 in 0.8 mi Calm Calm - 0.01 in   Overcast
7:34 PM 53.6 °F 51.8 °F 94% 29.99 in 0.2 mi Calm Calm - N/A Fog Fog
7:53 PM 54.0 °F 53.1 °F 97% 29.98 in 1.5 mi Calm Calm - 0.01 in   Overcast
8:18 PM 53.6 °F 53.6 °F 100% 29.99 in 2.0 mi Calm Calm - N/A   Overcast
8:29 PM 53.6 °F 53.6 °F 100% 30.00 in 5.0 mi Calm Calm - N/A   Overcast
8:38 PM 53.6 °F 53.6 °F 100% 29.99 in 1.2 mi Calm Calm - N/A   Overcast
8:49 PM 53.6 °F 53.6 °F 100% 29.99 in 2.0 mi Calm Calm - N/A   Overcast
8:53 PM 54.0 °F 53.1 °F 97% 29.98 in 4.0 mi Calm Calm - N/A   Overcast
9:23 PM 53.6 °F 53.6 °F 100% 29.99 in 2.5 mi Calm Calm - 0.01 in Rain Light Rain
9:33 PM 53.6 °F 53.6 °F 100% 29.99 in 1.2 mi Calm Calm - 0.01 in Rain Light Rain
9:39 PM 53.6 °F 53.6 °F 100% 29.99 in 3.0 mi Calm Calm - 0.02 in Rain Light Rain
9:46 PM 53.6 °F 53.6 °F 100% 29.99 in 1.8 mi ESE 3.5 mph - 0.02 in Rain Light Rain
9:53 PM 54.0 °F 53.1 °F 97% 29.97 in 1.5 mi SE 3.5 mph - 0.02 in Rain Light Rain
9:57 PM 53.6 °F 53.6 °F 100% 29.98 in 2.0 mi Calm Calm - 0.01 in Rain Rain
10:06 PM 53.6 °F 53.6 °F 100% 29.98 in 1.2 mi Calm Calm - 0.01 in Rain Light Rain
10:14 PM 53.6 °F 53.6 °F 100% 29.98 in 0.5 mi Calm Calm - 0.03 in Fog , Rain Rain
10:43 PM 53.6 °F 53.6 °F 100% 29.98 in 0.5 mi Calm Calm - 0.05 in Fog , Rain , Thunderstorm Light Rain
10:53 PM 54.0 °F 52.0 °F 93% 30.00 in 0.5 mi NW 9.2 mph - 0.05 in Fog , Rain , Thunderstorm Light Rain
11:00 PM 53.6 °F 53.6 °F 100% 30.00 in 1.0 mi Variable 4.6 mph - 0.01 in Rain , Thunderstorm Thunderstorms and Rain
11:19 PM 53.6 °F 51.8 °F 94% 30.00 in 0.5 mi North 3.5 mph - N/A Fog , Rain Rain
11:24 PM 53.6 °F 51.8 °F 94% 30.01 in 1.0 mi Calm Calm - 0.11 in Rain Rain
11:29 PM 53.6 °F 51.8 °F 94% 30.01 in 1.5 mi Calm Calm - 0.13 in Rain Heavy Rain
11:35 PM 53.6 °F 53.6 °F 100% 30.02 in 1.0 mi NW 5.8 mph - 0.20 in Rain , Thunderstorm Rain
11:41 PM 53.6 °F 51.8 °F 94% 30.01 in 0.8 mi Calm Calm - 0.21 in Rain , Thunderstorm Rain
11:50 PM 53.6 °F 51.8 °F 94% 30.01 in 0.8 mi Calm Calm - 0.31 in Rain Heavy Rain
11:53 PM 53.1 °F 52.0 °F 96% 30.00 in 1.2 mi Calm Calm - 0.33 in Rain Heavy Rain